Hourly Data Report for October 22, 2017

All times are specified in Local Standard Time (LST). Add 1 hour to adjust for Daylight Saving Time where and when it is observed.

IQALUIT CLIMATE
NUNAVUT

63°44'50.000" N
68°32'40.000" W
33.50 m
2402592
71321
XFB

Download Data

Hourly Data (October 2017)
Hourly Data Report for October 22, 2017
Temp Definition
°C
Dew Point Temp Definition
°C
Rel Hum Definition
%
Wind Dir Definition
10's deg

Wind Spd Definition
km/h
Visibility Definition
km
Stn Press Definition
kPa
Hmdx Definition


Wind Chill Definition


Weather Definition


TIME
00:00 -5.1 -7.5 83 35 17   102.67   -11 LegendNANA
01:00 -5.2 -7.6 84 36 13   102.71   -10 LegendNANA
02:00 -5.1 -7.2 85 35 10   102.73   -9 LegendNANA
03:00 -5.1 -7.0 87 33 10   102.75   -9 LegendNANA
04:00 -5.2 -7.2 85 33 8   102.78   -9 LegendNANA
05:00 -5.3 -7.3 86 31 5   102.71   -8 LegendNANA
06:00 -5.5 -7.4 86 0 1   102.70   -6 LegendNANA
07:00 -5.7 -7.6 86 4 5   102.61   -8 LegendNANA
08:00 -5.8 -7.6 87 7 8   102.62   -10 LegendNANA
09:00 -5.8 -7.5 88 9 12   102.53   -11 LegendNANA
10:00 -5.8 -7.3 89 9 8   102.49   -10 LegendNANA
11:00 -5.4 -6.9 90 11 11   102.45   -10 LegendNANA
12:00 -5.7 -7.1 90 11 9   102.44   -10 LegendNANA
13:00 -5.5 -7.1 89 11 8   102.38   -9 LegendNANA
14:00 -5.4 -7.5 85 10 12   102.29   -10 LegendNANA
15:00 -4.6 -7.6 80 15 13   102.19   -10 LegendNANA
16:00 -3.9 -6.5 83 14 14   102.09   -9 LegendNANA
17:00 -4.7 -8.0 78 11 11   101.94   -9 LegendNANA
18:00 -4.4 -8.7 72 11 16   101.86   -10 LegendNANA
19:00 -3.2 -8.3 68 13 21   101.74   -9 LegendNANA
20:00 -2.8 -7.9 68 11 18   101.66   -8 LegendNANA
21:00 -1.4 -6.6 68 14 32   101.57   -9 LegendNANA
22:00 -1.9 -6.8 69 12 31   101.36   -9 LegendNANA
23:00 -1.5 -6.1 71 13 29   101.27   -8 LegendNANA

Notes on Data Quality.

Legend

  • E = Estimated
  • M = Missing
  • NA = Not Available
  • ‡ = Partner data that is not subject to review by the National Climate Archives
Date modified: